Tracking 28794 objects as of 19-Apr-2024
HD Live streaming from Space Station
objects crossing your sky now

COSMOS 1998

Track COSMOS 1998 now!
10-day predictions
COSMOS 1998 is classified as:


NORAD ID: 19789
Int'l Code: 1989-009E
Perigee: 1,398.4 km
Apogee: 1,421.4 km
Inclination: 82.6 °
Period: 113.8 minutes
Semi major axis: 7780 km
RCS: 1.1762 m2 (large)
Launch date: February 10, 1989
Source: Commonwealth of Independent States (former USSR) (CIS)
Launch site: PLESETSK MISSILE AND SPACE COMPLEX (PKMTR)
Your satellite tracking list
Your tracking list is empty




NASA's NSSDC Master Catalog

Two Line Element Set (TLE):
1 19789U 89009E   24110.48631795  .00000054  00000-0  23430-3 0  9995
2 19789  82.6062 114.9574 0014756 278.8826  81.0596 12.64899621624307
Source of the keplerian elements: AFSPC